TIMESTAMP,CO2_1_1_1,H2O_1_1_1,TAU_1_1_1,TAU_SSITC_TEST_1_1_1,H_1_1_1,H_SSITC_TEST_1_1_1,LE_1_1_1,LE_SSITC_TEST_1_1_1,FC_1_1_1,FC_SSITC_TEST_1_1_1,WD_0_0_1,WS_0_0_1,WS_MAX_0_0_1,U_SIGMA_0_0_1,V_SIGMA_0_0_1,W_SIGMA_0_0_1,USTAR_0_0_1,MO_LENGTH_0_0_1,ZL_0_0_1,FETCH_MAX_0_0_1,FETCH_70_0_0_1,FETCH_80_0_0_1,FETCH_90_0_0_1,PA_0_0_1,RH_0_0_1,TA_0_0_1,VPD_0_0_1,T_SONIC_0_0_1,T_SONIC_SIGMA_0_0_1
[yyyymmddHHMMSS],[mmolCO2 mol-1],[mmolH2O mol-1],[kg m-1 s-2],[#],[W m-2],[#],[W m-2],[#],[umolCO2 m-2 s-1],[#],[Decimal degrees],[m s-1],[m s-1],[m s-1],[m s-1],[m s-1],[m s-1],[m],[#],[m],[m],[m],[m],[kPa],[%],[deg C],[hPa],[deg C],[deg C]
20220511003000,421.92930469189946,7.4157564800761033,0.12725640547968184,0,-19.041432186552321,0,55.513141926627007,0,0.97736547360057002,0,0.63232513752035402,2.5047170771561609,6.2491209734718938,0.87960608228916615,0.69151438830376322,0.41673639781571531,0.33779310245091310,168.87425143809190,0.11250975112073415,105.84890627517258,193.52555944819292,231.60066754193005,289.93655302751063,93.995491350911465,30.570000000000000,19.647241379310344,15.835460167376080,19.503595037672312,0.15105621640660893
20220511010000,422.50957015719860,7.2336488408682218,6.1218107721462162E-002,0,-11.106060340995269,0,16.445758525591792,0,0.47502959717535859,1,356.38689204044647,2.2132715621245755,5.2841192309024789,0.69566300028520667,0.62340029090436488,0.38850439862805514,0.23415172027263631,96.456537129676562,0.19697990997184900,83.509528162472733,152.68205147895665,182.72142008024503,228.74553542798702,94.027065132378468,30.245999999999999,19.423999999999978,15.690180912354476,19.290158305698014,0.13943275867031391
20220511013000,423.85268505649367,7.5571689302122760,2.2933189192945552E-002,0,-9.6364243826856733,0,9.2429870082069723,0,0.92869065138958995,0,356.20317636339314,1.7167797086227534,4.0543219287746286,0.51141977137444117,0.40276116673441292,0.25318249633247364,0.14321380517337073,25.442020265627555,0.74679604063004401,202.67011705838112,1930.0000000000000,3570.0000000000000,9773.0000000000000,94.055652644113920,32.319666666666663,19.066666666666663,14.888677640964803,19.025584968682608,0.17547575611738334
20220511020000,424.93694392246374,7.8062676144801184,2.4443567874400827E-003,2,-3.4691472753687336,1,3.3951556982752944,1,0.43344906099842800,1,3.9975275496863389,1.5247424640618827,3.0435168923852127,0.35407061757104608,0.27523457457818512,0.15124128110129534,4.6706850091998327E-002,2.4522827017717947,7.7478832217314668,1364.3084830771004,-9999.,-9999.,-9999.,94.094048838867792,34.500333333333330,18.547333333333313,13.948832851301800,18.550685134973264,0.19607925011209329
20220511023000,425.91822977463301,7.8391262279568217,1.4502249180467055E-002,1,-1.3226304093536034,2,3.7486959517221261,0,6.8733420147247676E-002,2,9.3743081262124406,1.9381617311969661,3.3215308704017668,0.54096562054311814,0.33914628446629919,0.14605239811648865,0.11364229207682974,92.669743998766734,0.20502916248751971,288.86511203616755,2718.0000000000000,5011.0000000000000,-9999.,94.126910412109368,35.853666666666669,18.006666666666661,13.204932967612299,18.057727172851628,0.20753598914725618
20220511030000,427.02046875763813,7.9835715695361547,6.2123724564895049E-003,1,-2.3565839560291248,2,0.10914282597646206,2,0.50608378988533886,1,26.861156478437266,2.1884681893504876,3.7254420822157361,0.38906689992104371,0.37385341317778914,0.13316881319108959,7.4279302376442674E-002,14.528913523796747,1.3077371524636106,1003.8428007332571,-9999.,-9999.,-9999.,94.173224183159718,38.070000000000000,17.352666666666664,12.233742776341842,17.509381102667987,0.30938593688938731
20220511033000,427.29663451442264,8.5497672187894480,3.7771968755901261E-002,0,-19.647383826060871,0,5.1940246019623846,0,2.0151588086811598,0,18.558421954261348,2.6627172192942692,4.1524215510490290,0.51336379385498376,0.31211458737642284,0.20984279177694548,0.18306752232659870,26.095234233298843,0.72810229753580968,281.18053124255124,2816.0000000000000,5286.0000000000000,-9999.,94.198077978081599,41.483333333333334,17.082666666666682,11.363673422822940,17.252767885843980,0.27961116007944514
20220511040000,428.08833126242240,9.5984966256158550,3.4491035090793654E-002,0,-17.315960804096267,0,18.848155769525238,2,2.0277854139296951,1,17.249113835515487,2.5519174933219553,4.0766688371521980,0.46012998160196317,0.34448113385595730,0.21512758716979680,0.17489190719424480,25.821521530077387,0.73582031089331612,283.15143856589418,2836.0000000000000,5323.0000000000000,-9999.,94.202490895906848,47.314000000000000,16.834000000000003,10.071348968034240,17.106052341285249,0.20605992232169837
20220511043000,429.30233494642306,10.874128753476690,2.2763757076916597E-002,0,-7.8986454165960520,0,-13.396861559487284,0,0.46541820864318173,0,9.2581288534870225,2.0564006276040394,3.6955187045221209,0.53178461885208750,0.30161545592997147,0.19198305891324868,0.14202074551393656,30.321369721152259,0.62662076861077798,272.26145498283245,2747.0000000000000,5166.0000000000000,-9999.,94.213959992838539,54.829333333333331,16.479666666666674,8.4424742271517843,16.815310217963315,0.17219320972506491
20220511050000,430.67570163622071,11.949048906643965,3.8334545464953573E-002,0,-6.5062294339267126,0,-47.683062441006491,1,-0.21948924707214451,2,12.553520447678096,2.2397740153358550,4.2816825389826851,0.56209064445829138,0.31298212181021545,0.21190909526568197,0.18423184186471742,80.368772436834476,0.23641023029103719,181.73830979943634,1675.0000000000000,3071.0000000000000,8273.0000000000000,94.214228883897562,61.533666666666669,16.148666666666657,7.0393784119560978,16.594958147684736,0.15982635726560085
20220511053000,432.53404213701566,13.962898658745374,5.1364675515487547E-002,0,-16.375610058952997,0,-34.986532327919150,0,1.3757773635685209,0,29.274187161806168,2.2988810437431551,4.3263739201347464,0.53014386734341201,0.44754993871105025,0.25245144255571805,0.21321465566449463,49.515331445440367,0.38371953585599233,109.38713737356434,199.99457435698341,239.34242617829071,299.62831616973472,94.219263781250007,73.387000000000000,15.829999999999984,4.7720663251306679,16.531345038519987,0.23832371261451460
20220511060000,433.09697983749476,14.855192223473551,9.6434921773747226E-003,0,-5.7252289337747566,0,-9.5680348157754977,0,0.70843154659785412,0,48.236293889735236,1.9978358557416034,3.4720263410767114,0.36476941418153197,0.32164998799972255,0.14019444552928559,9.2354779060998690E-002,11.515453760482847,1.6499566925622671,634.73645454116843,6319.0000000000000,-9999.,-9999.,94.262984122612849,78.885000000000005,15.676333333333332,3.7491480907059689,16.454805640326640,0.16401588400805445
20220511063000,433.82077613102166,15.464479661499077,3.2807613425470145E-002,0,-6.6814482830237347,1,-24.258657025865414,1,-5.6188563791588616E-003,2,61.506179992371628,2.3498976690919071,4.1059957029355054,0.41409779399787511,0.54437475409357794,0.21927987099073240,0.17032175454811255,61.902813874677385,0.30693273553712136,225.36800991797759,2191.0000000000000,4078.0000000000000,-9999.,94.271986508405107,82.753333333333330,15.557999999999993,3.0391639076828323,16.390458155592569,0.18542503573313093
20220511070000,435.07241865628896,16.039247811189302,2.2974768290700692E-002,0,-9.9055789458846810,0,-1.0175764101483240,2,1.0034459496334398,0,44.375313728269305,2.0523369691271260,3.5872055255622133,0.44723816419887030,0.42074939117022309,0.17804698157894619,0.14250347556349532,24.459737044277311,0.77678676453495676,279.35941149178319,2776.0000000000000,5200.0000000000000,-9999.,94.284721879906428,86.583333333333329,15.423666666666691,2.3439704348336909,16.318589711903542,0.18230610687702570
20220511073000,435.06839399025671,16.024696479083925,1.5573491914557017E-002,1,-12.048674842754268,0,-17.760768619079489,1,0.78532411592344376,2,51.955404922784965,2.1511766009301638,4.4582080708342646,0.53570858930303744,0.44715109627915600,0.21927980035905512,0.11730193428510144,11.214613363187276,1.6942180157872211,471.38797436967093,4454.0000000000000,8221.0000000000000,-9999.,94.271084947265635,87.366666666666660,15.266999999999996,2.1850278963107326,16.211366555107986,0.20051814247403002
20220511080000,437.08930009956350,15.283930909747914,4.1690634206498399E-002,0,-1.1955313429774246,2,-5.4334133480410207,1,0.80358387827269107,2,7.6867236688713660,1.9226450693730821,4.3609427272719099,0.49838654199956833,0.93767281600501129,0.22005819032068233,0.19172949359785177,493.65438753548159,3.8488465776341081E-002,139.26628762451546,924.00000000000000,1545.0000000000000,3541.0000000000000,94.322279252604162,85.269999999999996,14.917333333333318,2.4909919019772837,15.653385304768733,0.59789952722135520
20220511083000,449.53876801034107,14.104601995340335,3.3006539542211867E-002,0,-19.405395846960420,1,-35.147727369236470,2,4.5607414183992674,1,349.07769813893344,2.0571099206314072,4.3250831487157404,0.54973462796853112,0.52697331006529446,0.27909943498609513,0.17004001348867509,21.218640652133960,0.89543907696505376,209.11538780353925,1957.0000000000000,3603.0000000000000,9779.0000000000000,94.374439759114580,87.276666666666671,13.328333333333319,1.9410398682198844,13.864027645534975,0.40031355829205290
20220511090000,448.63985861542807,13.641990178116115,5.6542250110816948E-002,0,-12.570413489076740,0,-7.9868991067725865,0,3.4275625137506145,0,3.0973125275304767,2.3533706989472356,5.2408144867149593,0.70035562608118451,0.51887336537196460,0.32705707009044999,0.22228880235553330,73.193848920384568,0.25958465472511144,91.936959131359288,168.09008308133266,201.16089864210772,251.82957447931332,94.412099480034726,87.373333333333335,12.807333333333304,1.8617942220188683,13.322577370537658,0.14709050307806817
20220511093000,448.55454744777006,14.089154715232768,0.11251374538648881,0,-18.669745134013557,0,6.0956510516224540,2,3.1048464076412285,1,16.290650645677744,2.2503531046063947,4.8873699198539180,0.71729029660665300,0.43729165914673718,0.32347351347804149,0.31347698837321875,138.22557189800267,0.13745647595526098,122.10921852042323,223.25459619311513,267.17873162367090,334.47606741118261,94.413962479252334,91.500000000000000,12.595666666666659,1.2360483925206018,13.164222969832167,0.13997090991252215
20220511100000,448.14065879042613,14.325578220835018,6.4693155673272315E-002,0,-9.7780661581957755,0,2.2267152045414305,2,1.6610756149388943,0,9.4999490125520936,2.1090774118800666,4.7038096327039378,0.62977507301604796,0.46099504896555366,0.29103948026684628,0.23762621451649804,114.98235041931849,0.16524275187201043,106.46548933610529,194.65286993265912,232.94977027272094,291.62546955610696,94.436601149305559,93.906666666666666,12.457333333333338,0.87806668420860889,13.037969370524138,0.16256263045471114
20220511103000,447.98634279661337,14.309157372816594,3.6762121465989832E-002,0,-9.4819223618662889,0,-0.29886204087212015,0,1.7940062541270012,0,4.7744926162150989,1.9862101817367845,4.1091764023374395,0.54031220108159161,0.47012876527074565,0.25263987244056740,0.17902064819877411,50.710547906241459,0.37467550212884759,165.23062729296919,1569.0000000000000,2900.0000000000000,7927.0000000000000,94.463214506510411,95.459999999999994,12.194666666666649,0.64302473986608222,12.758250544230179,0.14045377014540303
20220511110000,447.67771386618602,14.213239558231804,3.4344290347148497E-002,0,-6.1057894233403163,0,0.55812341510595742,2,1.9165417991417759,0,3.4087189234270454E-002,1.8915476682821595,4.5611819349461280,0.55047310038293673,0.47163318967337514,0.28703324302327543,0.17291540752549184,70.985052840949436,0.26766198290465160,156.61266687868377,1443.0000000000000,2644.0000000000000,7120.0000000000000,94.503278761027374,96.486666666666665,11.936666666666667,0.48922482302579284,12.453681423042099,0.11856761159150518
20220511113000,447.93791825888917,13.953254975765768,5.7423655110771944E-002,0,-3.6282916426666438,0,-0.76740178759044564,0,1.4723151027411387,0,353.02124591181985,2.4400309530113313,5.3612708727030762,0.70648963249535690,0.64173475047051343,0.35476200421894893,0.22342949402900425,257.78448967485139,7.3704977456033410E-002,86.500301580381674,158.15013914515268,189.26532444760491,236.93772716798063,94.549409884765623,96.290000000000006,11.695333333333338,0.50844450164936239,12.163042154948016,0.15852770736710248
20220511120000,448.79181147197420,13.546911664679776,9.4973907791095005E-002,0,0.50739335105746930,2,-5.0576117327505177,1,3.9568260948665199,0,353.51305658555532,2.0117670164847121,4.6383772950970705,0.65272662348030364,0.58402757150381546,0.39224543997097461,0.28709783258263355,-3912.4883277584240,-4.8562445196828593E-003,97.551175747378622,178.35466161796819,213.44497754052196,267.20778357829789,94.611414523003475,95.113333333333330,11.444333333333361,0.65867567807275917,11.852705033196344,7.3241491831444364E-002
20220511123000,446.44681630899453,13.968740994093229,0.11323689269377338,0,14.089134102244694,1,6.2907031989826674,2,1.4562209540494579,0,356.69586509741652,1.9933201199964405,4.8219633788338392,0.68276719542673703,0.58587112363943539,0.38472683275118746,0.31351421011812192,-183.54805828669936,-0.10351512392641213,106.30133094740755,194.35273604248684,232.59058666144989,291.17581429707343,94.648462128302810,97.386666666666670,11.556666666666672,0.35488088928312667,11.913675174344348,0.12984456556033869
20220511130000,443.80453666924473,14.289390170215784,0.14090382212278102,1,59.898149307477453,0,8.5714605736388272,1,-4.1308121109411315,2,354.93623225324131,1.7006241744895008,4.7659843744961998,0.72393750810576840,0.67091489122855241,0.40600754253451810,0.35007257781824030,-60.124544661767686,-0.31601070921842372,111.21262520768930,203.33214832724715,243.33664979241019,304.62861016279595,94.678846517261746,95.623333333333335,12.182333333333361,0.61938791135290328,12.724615577725331,0.37080415759668667
20220511133000,437.60684428883860,13.777853758476253,0.38918400620228383,0,105.47967268364779,0,44.455713745439994,0,-1.5798949741931865,2,7.0853937683715742,2.2790434813593063,6.5659149997672630,1.1212654056563536,0.78068427927368600,0.58279037582630655,0.58296891084202118,-157.63522039587608,-0.12053143930832518,125.24526578799136,228.98829078920610,274.04049964915862,343.06618673207839,94.656013015190965,85.578000000000003,13.316000000000031,2.1984146847137684,13.715966437445672,0.50061557678818869
20220511140000,435.16499861151993,13.240774108072110,0.32863425140018904,0,115.86455434448658,0,44.446464831907242,0,-1.9812495632465017,1,9.8260668045500665,2.5733239203328986,6.5971452489970765,1.1357056544877799,0.75699187400440948,0.59233712903798141,0.53659394945539596,-111.90701225410552,-0.16978381977401910,115.69546928913071,211.52821703791133,253.14525073391789,316.90781461063403,94.661164263671878,76.933999999999997,14.343666666666650,3.7588558573068829,14.710880022684705,0.55371108737344132
20220511143000,431.84118186157679,13.458222197865043,0.39669438995929340,0,119.13740303510798,0,78.087629449229169,0,-3.0937703125065430,2,6.3336584018974236,2.6189130826261522,7.5532441425458465,1.1034289502276118,0.92356157599403521,0.66728030683262896,0.59121578245337680,-145.50817361659952,-0.13057685714661796,113.65932399701229,207.80549404868526,248.69010211253254,311.33049720382701,94.599703120659001,71.323666666666668,15.763333333333321,5.1201643965640509,16.193750261986111,0.49427393312086959
20220511150000,427.10581674705435,13.094670370966009,0.59795996699418530,0,77.165161107042110,1,212.24394854877025,1,6.5541877219378222,1,33.709528950357651,2.6487268648761226,7.6458718796008407,1.4426327540169364,0.90408415574782630,0.75428653074040986,0.72845883963002234,-420.16557606744232,-4.5220268109137624E-002,121.77267094169110,222.63927988284780,266.44235515425936,333.55421145309003,94.580690809329155,60.905999999999999,17.816000000000031,7.9517654613930091,18.108804097443794,0.59768287348064986
20220511153000,426.23071883616768,12.342429899912281,0.69380083851949237,0,161.92976557984505,0,166.28090094401639,1,1.6319402126383424,1,37.104725836240874,3.5399174411065046,9.6082156314832403,1.7217622921008171,1.3103095927805328,0.82765013494144979,0.78639317998535485,-251.79614846531956,-7.5457865880013297E-002,120.19579058849938,219.75623967701932,262.99209236662563,329.23489186604911,94.542035362664606,53.078666666666663,19.060333333333347,10.317926651274844,19.162767545574297,0.37556762994700876
20220511160000,427.71495614866114,13.230482488713836,0.63663514874219007,0,216.53728768835904,0,104.18140859797195,0,-3.0780685998877857,2,28.961173459946366,2.0070868501922408,6.8591757778497833,1.2921640535524888,0.84349460218133898,0.72030888905338741,0.75433112088489529,-166.25937433274771,-0.11427927042461879,129.92403528005670,237.54257363769560,284.27779142447582,355.88206123354104,94.573418739366318,54.156999999999996,19.859666666666669,10.594480888175225,20.076377216762978,0.56065458340142948
20220511163000,428.36949431114465,13.222519957143911,0.24656168965643011,1,167.63649088493901,0,66.646634839554224,0,-6.8113451025057850E-002,2,62.658283134478040,2.5815986609256223,6.6916941265415097,0.97127959804637554,1.2906835492236963,0.71378361487291575,0.46989712511381593,-51.935857745507761,-0.36583587572775617,89.619779426854492,163.85353955493562,196.09083806932503,245.48246027746345,94.630676699869781,51.703000000000003,20.610000000000014,11.691414771782540,20.840745289272718,0.43732410574153957
20220511170000,426.57943407151225,13.444903882770815,0.38329663873900743,0,86.519848769753267,0,64.675377659912201,0,1.8330547770526211,1,51.806774016532700,2.3767058233316605,6.7978783703564130,1.1543829301863988,1.1109131549262630,0.65666702312147374,0.58655580770311444,-195.70077259789392,-9.7086995354071864E-002,114.40004768005646,209.15977318299193,250.31082834858043,313.35945412898747,94.609418814066075,50.692333333333330,21.198666666666668,12.376012094743841,21.501806863415652,0.41561230414401445
20220511173000,422.87850654733489,12.889223133228315,0.40758385754474036,0,90.526491558204128,0,53.949095893404753,0,0.93548730117278334,1,61.256708964743410,3.8549625076355358,8.4224459430397633,1.3537724412289855,1.2794256875083097,0.79135422726871696,0.60555733393559930,-205.72624654977619,-9.2355741275836109E-002,101.08398930328184,184.81377153125308,221.17488242703357,276.88470723232808,94.564777577690990,46.798999999999999,21.807000000000016,13.859764445045380,22.038728745354547,0.27561771464430257
20220511180000,422.10610309759932,12.426410890499122,0.50844020379360322,0,89.021814542391880,0,15.292132082369314,2,-0.64323843625930366,2,58.581339170653024,4.3626352881183879,11.640782892023408,1.5386423304828147,1.5373397635257731,0.90116177965434130,0.67691320389807963,-292.04103286113491,-6.5059350783197897E-002,99.595353412907144,182.09207034758202,217.91770124236106,272.80710290029810,94.495266334852445,44.180000000000000,22.139666666666699,14.840084135247251,22.283611384921642,0.22731039421698845
20220511183000,422.07398958474465,12.207870552724994,1.0341568201214513,0,175.84654528325359,0,94.674207864598358,0,-3.8119380805574893E-002,2,66.994653943793296,4.6211008968649905,11.392749551143153,2.0154938407174239,1.7326575659129992,1.0600197985755955,0.96631209209943425,-429.74788995117905,-4.4211968096361035E-002,116.27802581303473,212.59331616048172,254.41990235352301,318.50352718271608,94.393844904296884,42.658666666666669,22.406333333333350,15.493894030972591,22.509322587755037,0.31766491908241939
20220511190000,422.33234861489575,12.953161556051898,0.97403371627656710,0,130.55331189880886,0,67.895377746769114,0,0.12479854702285607,2,64.807942213071001,4.5650839113119135,11.470220517459998,1.8898457951381076,1.6315731281674226,1.0552343590614326,0.93847812235174000,-529.89210369095781,-3.5856356166954935E-002,114.00268583719942,208.43326900218955,249.44138839591682,312.27101847975058,94.288322259765621,45.180333333333337,22.418000000000006,14.823034837523576,22.649754031711211,0.25314305509450852
20220511193000,422.19498634520818,13.340714543396626,0.70121319661834958,0,99.423265914789638,0,66.676547491931856,0,0.38902799651784875,0,65.861169321471564,3.7450812633910706,10.603676212402254,1.7117051100212399,1.2804916393841146,0.93963762983196086,0.79697507682590774,-426.14529500055681,-4.4585732197219667E-002,109.75956355277272,200.67548819181403,240.15730613076295,300.64844917305714,94.280822189236119,45.264333333333333,22.872000000000014,15.213642814426590,23.124692712571914,0.23821034914108388
20220511200000,422.09358120830177,13.211750133344228,0.57431340325503732,0,44.164092363898099,0,39.720627283354091,0,0.10971429771862300,0,69.542135419850510,4.1315084111731988,9.7140597108173434,1.6547970698606831,1.3589925458823764,0.91880569296241887,0.72120077650330416,-711.18553466405172,-2.6715953958449366E-002,103.16227392305443,188.61353865108020,225.72223319540288,282.57745078605421,94.335592396617656,44.488666666666667,23.006666666666661,15.555525265989322,23.337843343273107,0.16855273278075236
20220511203000,422.26171153008755,13.755655853531664,0.56457311059925752,0,78.939010219378815,0,31.154401509129478,1,0.53724491554302711,1,76.006380951710113,2.9832910325329203,7.8006854126285914,1.3298522617160760,1.0612217885975646,0.82400390545935576,0.71562546933528559,-388.82865128784260,-4.8864711839186600E-002,111.85621378126929,204.50883350179907,244.74484141676186,306.39149897438722,94.355037644748265,45.034999999999997,23.475999999999999,15.845244268382373,23.849256903754394,0.24994460301593630
20220511210000,422.58226038277883,14.077852836326370,0.46255147839662286,0,89.317467973418275,0,41.365974853098876,0,1.7028054679806839,0,96.620948457989854,2.3141200120048930,7.8317085862212625,1.2232201830273128,0.99952345055214542,0.77057273198261078,0.64838811675432861,-255.61945358277791,-7.4329241118760089E-002,109.06164095937518,199.39946310008881,238.63022999732371,298.73673106343728,94.355895274956595,44.581333333333333,24.029333333333341,16.516763852453618,24.350513470119949,0.24214102088263828
20220511213000,422.95720879345873,14.597140991142600,0.47493016672115296,0,82.276771777868973,0,72.226608151623225,1,2.9106941800325234,1,103.18020023940707,2.9997609448020190,7.6741190421207310,1.3115406502834310,1.0430769512083824,0.82626259346775199,0.65725896360806813,-289.09128667082865,-6.5723184599590478E-002,104.26766320897238,190.63454281156899,228.14085900384302,285.60528329364212,94.367185868904571,45.666333333333334,24.234333333333325,16.393744335374542,24.533887341990351,0.22062718452724853
20220511220000,423.39831211952156,15.260967684449732,0.38243813415953837,0,54.735300964664006,0,25.564227921639425,0,2.4400199631551911,0,88.230128486142931,2.7013352346868107,6.4992646826949381,1.2113671318675621,0.94559113627394620,0.70760660022564070,0.58969193310463053,-313.94010617433821,-6.0521098216896378E-002,108.22349351093554,197.86706225092288,236.79633756151003,296.44091535139154,94.394026873046883,48.032333333333334,24.138333333333321,15.589873767310893,24.598431660122344,0.17040652820949329
20220511223000,423.74293822107092,16.139769438111426,0.24890057796758641,0,40.151495825270224,0,-8.5254564979653615,1,1.9652160577707645,0,93.476601965612716,2.1924099497340648,5.9799857564629244,0.92417968056042565,0.81366148689490359,0.63299773147991012,0.47589724838275616,-224.95671238901085,-8.4460693785139762E-002,99.665243444045586,182.21985161478528,218.07062278341232,272.99854252336405,94.380779740017360,50.572333333333333,24.210333333333324,14.892049944089875,24.802234108818936,0.13248170164549869
20220511230000,424.01604275612277,16.948284443088795,0.25918414784797100,0,38.980918399135646,0,-10.739711319272542,1,1.0840473879718346,0,97.245902097658401,2.1784169644905478,7.1198701971555556,0.94602935864810500,0.79217213032397538,0.55993366383250343,0.48593644095215821,-246.66783709979543,-7.7026661535581922E-002,111.79161025489194,204.39071765134332,244.60348691097548,306.21453990687849,94.351210687065972,52.481999999999999,24.402333333333331,14.482297911722455,25.043336457146552,0.15843957658452290